Other Surface Observations
Issued by NWS

Current Version | Previous Version | Text Only | Print | Product List | Glossary On
Versions: 1 2 3 4 5 6 7 8 9 10 11 12 13 14 15 16 17 18 19 20 21 22 23 24 25 26 27 28 29 30 31 32 33 34 35 36 37 38 39 40 41 42 43 44 45 46 47 48 49 50
000
SXUS56 KMFR 181523
OSO4S1
METAR K4S1 181519Z AUTO 16014G21KT 10SM SCT035 BKN041 13/08 A2995 RMK AO2



USA.gov is the U.S. government's official web portal to all federal, state and local government web resources and services.